Regional Weather Roundup
Issued by NWS

Home | Current Version | Previous Version | Text Only | Print | Product List | Glossary Off
Versions: 1 2 3 4 5 6 7 8 9 10 11 12 13 14 15 16 17 18 19 20 21 22 23 24 25 26 27 28 29 30 31 32 33 34 35 36 37 38 39 40 41 42 43 44 45 46 47 48 49 50

000
ASUS45 KCYS 061210
RWRWY

WYOMING REGIONAL WEATHER ROUNDUP
NATIONAL WEATHER SERVICE CHEYENNE WY
500 AM MST FRI MAR 06 2015

NOTE:  "FAIR" INDICATES FEW OR NO CLOUDS BELOW 12,000 FEET
WITH NO SIGNIFICANT WEATHER AND/OR OBSTRUCTIONS TO VISIBILITY.

WYZ001-061300-
YELLOWSTONE NATIONAL PARK

CITY           SKY/WX    TMP DP  RH WIND       PRES   REMARKS
LK YELLOWSTONE   N/A      2  -1  88 NW3       30.35F
6HR MIN TEMP:   2; 6HR MAX TEMP:  11;

W YELLOWSTONE  NOT AVBL

$$
WYZ002>013-054>058-071-098>099-061300-
NORTHERN WYOMING

CITY           SKY/WX    TMP DP  RH WIND       PRES   REMARKS
JACKSON        FAIR       7   3  85 N9        30.38R WCI  -7
CODY           FAIR      41  10  28 W16G25    30.18R
GREYBULL       FAIR      21  15  78 SE5       30.24R WCI  15
6HR MIN TEMP:  20; 6HR MAX TEMP:  27;

WORLAND        FAIR      20  15  81 S6        30.23R WCI  12
6HR MIN TEMP:  20; 6HR MAX TEMP:  26;

SHERIDAN       FAIR      24  13  62 S6        30.14S WCI  17
6HR MIN TEMP:  23; 6HR MAX TEMP:  31;

BUFFALO        FAIR      32  13  45 SW7       30.15R WCI  26
6HR MIN TEMP:  28; 6HR MAX TEMP:  39;

GILLETTE       FAIR      32  16  51 SW14      30.14R WCI  22
6HR MIN TEMP:  31; 6HR MAX TEMP:  35;

HULETT         FAIR      32  19  59 SW12      30.13R WCI  23
NEWCASTLE      FAIR      21  14  73 CALM      30.17R

$$
WYZ014>020-022>026-101>103-061300-
CENTRAL WYOMING

CITY           SKY/WX    TMP DP  RH WIND       PRES   REMARKS
BIG PINEY      FAIR      14   8  77 E5        30.35R WCI   6
6HR MIN TEMP:  12; 6HR MAX TEMP:  24;

PINEDALE       FAIR       9   3  78 W6        30.35S WCI  -1
DUBOIS         FAIR      19   9  63 NW16      30.27F WCI   5
LANDER         FAIR      16   8  71 NW6       30.22F WCI   7
6HR MIN TEMP:  14; 6HR MAX TEMP:  27;

RIVERTON       FAIR      17   9  70 SW3       30.24R
6HR MIN TEMP:  10; 6HR MAX TEMP:  24;

CASPER         FAIR      27  15  61 SW14      30.22R WCI  16
6HR MIN TEMP:  27; 6HR MAX TEMP:  32;

DOUGLAS        FAIR      14  10  84 S5        30.21R WCI   6
6HR MIN TEMP:  13; 6HR MAX TEMP:  23;


$$
WYZ021-027>030-104>119-061300-
SOUTHERN WYOMING

CITY           SKY/WX    TMP DP  RH WIND       PRES   REMARKS
EVANSTON       FAIR      20  12  71 SW13      30.37F WCI   7
6HR MIN TEMP:  20; 6HR MAX TEMP:  24;

FORT BRIDGER   FAIR      27  12  52 SW13      30.38S WCI  17
ROCK SPRINGS   FAIR      24  11  57 W13       30.34S WCI  12
6HR MIN TEMP:  23; 6HR MAX TEMP:  29;

DIXON          FAIR      14   9  81 E10       30.41S WCI   1
RAWLINS        FAIR      25  12  58 W17G28    30.28R WCI  12
6HR MIN TEMP:  25; 6HR MAX TEMP:  28;

SARATOGA       FAIR      19   9  63 SW8       30.33R WCI   9
LARAMIE        FAIR      26  11  52 W17       30.25R WCI  13
6HR MIN TEMP:  22; 6HR MAX TEMP:  28;

CHEYENNE       FAIR      32  12  43 W13       30.22S WCI  22
6HR MIN TEMP:  31; 6HR MAX TEMP:  36;

TORRINGTON     FAIR      30  19  63 W5        30.20R WCI  25
6HR MIN TEMP:  27; 6HR MAX TEMP:  36;

PINE BLUFFS    FAIR      30  18  59 CALM      30.23S

$$



USA.gov is the U.S. government's official web portal to all federal, state and local government web resources and services.